OV1-14 R/B, 3177

Orbit data source: Space-Track

OV1-14 R/B, 3177 is space debris originally from a launch on Sat, 06 Apr 1968 UTC launched from the Air Force Western Test Range (AFWTR). Debris objects in space refer to the collection of defunct objects orbiting the Earth. Examples of debris include non-operational satellites, rocket bodies, and fragments generated from explosions, collisions, or faulty payload assembly.

Loading next visibility...
Identifier
3177, 1968-026C
Orbit
Active
Country
Flag of USUS
Related business
Manufacturer
UTC
Mission
Spacecraft
Bus & Motor
FW4, Unknown motor
Mass
125 kg wet, 125 kg dry
Launch date (UTC)
1968-04-06 (57 years ago)
Launch vehicle
Unknown
Launch site
Air Force Western Test Range (AFWTR)
Object type
Payload
Rocket body
Debris
Shape & HBR
Cyl, 1.0 m
Radar Cross Section
1.363 m², Medium (>0.1 m² and < 1m²)

Expand to show TLE details & history
Last TLE update: 10 hours ago

TLE from 10 hours ago
0 OV1-14 R/B
1 03177U 68026C   25260.05660595  .00000284  00000-0  40994-3 0  9994
2 03177  99.9802 287.1978 4014637 123.2865 305.3107  6.98005360458149
Epoch: 2025-09-17T01:21Z
TLE epoch observation values (Epoch: 2025-09-17T01:21:30.754Z)
Latitude
21.62978°
Longitude
-93.40473°
Altitude
4,153.768 km
Speed
6.424 km/s
True Right ascension
18h 52m 50s
True Declination
21° 33' 00"
Sunlit
Object was in daylight at epoch
Visualization orbit readout
Latitude
Unknown
Longitude
Unknown
Altitude
Unknown
Speed
Unknown
Apparent Right ascension
Unknown
Apparent Declination
Unknown
Sunlit
N/A
Visualization observer readout
Local Sidereal Time
04:11:52
Azimuth
Unknown
Elevation
Unknown
Doppler factor
Unknown
Orbital elements
Apogee altitude
9,827.276 km
Perigee altitude
542.862 km
Semi-major axis
11,563.206 km
Eccentricity
0.40146
Inclination
99.9802°
RAAN
287.1978°
Arg. of periapsis
123.2865°
True anomaly
258.69887°
Mean anomaly
305.3107°
Eccentric anomaly
282.888°
Mean motion
1.74552 °/min
Orbital period
206.24 mins
BSTAR
0.00040994
Loading maneuver chart data...
Computing Atmospheric mass density...
Loading historical data...
Loading historical data...
Loading historical data...
Loading historical data...
Loading historical data...
Loading historical data...
Loading historical data...
Other satellites on launch #26 in the year 1968 (1968-04-06 UTC)

Documentation

Showing up to 5 results
|